Date,Installs,Update checks
2021-02-11,20,2
2021-02-12,31,9
2021-02-13,54,17
2021-02-14,40,23
2021-02-15,57,46
2021-02-16,42,61
2021-02-17,31,62
2021-02-18,50,76
2021-02-19,39,87
2021-02-20,29,88
2021-02-21,18,105
2021-02-22,17,87
2021-02-23,33,100
2021-02-24,29,108
2021-02-25,33,125
2021-02-26,21,110
2021-02-27,26,125
2021-02-28,20,127
2021-03-01,14,150
2021-03-02,22,153
2021-03-03,14,156
2021-03-04,21,158
2021-03-05,15,148
2021-03-06,20,157
2021-03-07,23,139
2021-03-08,23,130
2021-03-09,22,134
2021-03-10,12,147
2021-03-11,35,142
2021-03-12,26,147
2021-03-13,31,135
2021-03-14,18,138
2021-03-15,18,161
2021-03-16,23,168
2021-03-17,17,140
2021-03-18,23,153
2021-03-19,25,140
2021-03-20,24,134
2021-03-21,28,113
2021-03-22,18,124
2021-03-23,18,129
2021-03-24,37,152
2021-03-25,33,183
2021-03-26,43,163
2021-03-27,34,164
2021-03-28,39,158
2021-03-29,33,163
2021-03-30,31,180
2021-03-31,26,161
2021-04-01,20,190
2021-04-02,31,185
2021-04-03,32,126
2021-04-04,32,159
2021-04-05,34,146
2021-04-06,38,209
2021-04-07,46,216
2021-04-08,51,239
2021-04-09,31,222
2021-04-10,37,195
2021-04-11,27,190
2021-04-12,29,183
2021-04-13,42,226
2021-04-14,37,232
2021-04-15,24,210
2021-04-16,29,348
2021-04-17,25,335
2021-04-18,32,342
2021-04-19,31,378
2021-04-20,26,362
2021-04-21,26,396
2021-04-22,21,368
2021-04-23,23,392
2021-04-24,23,323
2021-04-25,36,368
2021-04-26,24,423
2021-04-27,37,406
2021-04-28,26,403
2021-04-29,19,387
2021-04-30,20,396
2021-05-01,21,297
2021-05-02,16,322
2021-05-03,19,340
2021-05-04,17,366
2021-05-05,28,360
2021-05-06,25,407
2021-05-07,22,430
2021-05-08,35,413
2021-05-09,35,372
2021-05-10,26,425
2021-05-11,30,431
2021-05-12,25,440
2021-05-13,38,408
2021-05-14,29,444
2021-05-15,15,399
2021-05-16,21,404
2021-05-17,29,447
2021-05-18,37,439
2021-05-19,42,454
2021-05-20,52,472
2021-05-21,39,457
2021-05-22,30,433
2021-05-23,28,418
2021-05-24,21,499
2021-05-25,26,455
2021-05-26,23,487
2021-05-27,14,495
2021-05-28,25,491
2021-05-29,28,423
2021-05-30,27,424
2021-05-31,34,511
2021-06-01,25,489
2021-06-02,28,507
2021-06-03,16,539
2021-06-04,25,473
2021-06-05,20,353
2021-06-06,28,489
2021-06-07,25,534
2021-06-08,26,536
2021-06-09,14,505
2021-06-10,20,553
2021-06-11,17,507
2021-06-12,15,460
2021-06-13,17,482
2021-06-14,16,501
2021-06-15,15,552
2021-06-16,20,538
2021-06-17,20,540
2021-06-18,20,529
2021-06-19,38,472
2021-06-20,24,462
2021-06-21,10,550
2021-06-22,14,540
2021-06-23,16,555
2021-06-24,13,536
2021-06-25,21,551
2021-06-26,29,482
2021-06-27,29,470
2021-06-28,28,578
2021-06-29,34,533
2021-06-30,36,551
2021-07-01,30,536
2021-07-02,27,556
2021-07-03,32,496
2021-07-04,21,494
2021-07-05,22,579
2021-07-06,28,581
2021-07-07,17,572
2021-07-08,16,528
2021-07-09,29,562
2021-07-10,16,464
2021-07-11,29,479
2021-07-12,19,594
2021-07-13,26,584
2021-07-14,23,547
2021-07-15,20,560
2021-07-16,20,555
2021-07-17,17,490
2021-07-18,20,30
2021-07-19,24,138
2021-07-20,27,561
2021-07-21,26,560
2021-07-22,26,576
2021-07-23,16,564
2021-07-24,30,503
2021-07-25,19,489
2021-07-26,17,571
2021-07-27,13,559
2021-07-28,19,569
2021-07-29,25,571
2021-07-30,22,595
2021-07-31,15,529
2021-08-01,24,509
2021-08-02,21,561
2021-08-03,15,577
2021-08-04,18,564
2021-08-05,26,582
2021-08-06,21,598
2021-08-07,32,492
2021-08-08,25,524
2021-08-09,20,599
2021-08-10,36,588
2021-08-11,23,570
2021-08-12,12,543
2021-08-13,33,596
2021-08-14,17,519
2021-08-15,18,515
2021-08-16,17,613
2021-08-17,19,591
2021-08-18,17,598
2021-08-19,19,588
2021-08-20,18,582
2021-08-21,24,535
2021-08-22,34,520
2021-08-23,32,590
2021-08-24,19,617
2021-08-25,17,613
2021-08-26,22,615
2021-08-27,21,625
2021-08-28,21,567
2021-08-29,17,540
2021-08-30,26,614
2021-08-31,17,614
2021-09-01,16,592
2021-09-02,16,629
2021-09-03,22,620
2021-09-04,18,544
2021-09-05,26,523
2021-09-06,8,593
2021-09-07,12,582
2021-09-08,10,608
2021-09-09,13,609
2021-09-10,14,616
2021-09-11,12,539
2021-09-12,15,554
2021-09-13,4,613
2021-09-14,13,584
2021-09-15,12,597
2021-09-16,14,608
2021-09-17,11,577
2021-09-18,12,558
2021-09-19,13,508
2021-09-20,14,554
2021-09-21,4,519
2021-09-22,5,582
2021-09-23,12,599
2021-09-24,9,555
2021-09-25,14,544
2021-09-26,13,536
2021-09-27,16,583
2021-09-28,13,587
2021-09-29,10,592
2021-09-30,11,556
2021-10-01,12,473
2021-10-02,15,450
2021-10-03,14,437
2021-10-04,19,525
2021-10-05,22,526
2021-10-06,16,535
2021-10-07,13,519
2021-10-08,21,591
2021-10-09,24,561
2021-10-10,16,512
2021-10-11,11,581
2021-10-12,20,585
2021-10-13,15,571
2021-10-14,18,582
2021-10-15,18,553
2021-10-16,14,507
2021-10-17,16,487
2021-10-18,18,608
2021-10-19,14,573
2021-10-20,10,573
2021-10-21,15,569
2021-10-22,14,560
2021-10-23,7,509
2021-10-24,35,538
2021-10-25,25,593
2021-10-26,34,588
2021-10-27,24,606
2021-10-28,25,567
2021-10-29,27,589
2021-10-30,29,537
2021-10-31,26,531
2021-11-01,19,581
2021-11-02,20,626
2021-11-03,25,630
2021-11-04,28,612
2021-11-05,34,622
2021-11-06,37,560
2021-11-07,21,550
2021-11-08,18,607
2021-11-09,19,624
2021-11-10,21,624
2021-11-11,24,583
2021-11-12,12,610
2021-11-13,21,556
2021-11-14,20,557
2021-11-15,15,623
2021-11-16,12,632
2021-11-17,15,627
2021-11-18,16,634
2021-11-19,22,615
2021-11-20,20,603
2021-11-21,22,554
2021-11-22,27,651
2021-11-23,32,660
2021-11-24,18,612
2021-11-25,21,634
2021-11-26,19,630
2021-11-27,22,567
2021-11-28,23,586
2021-11-29,20,674
2021-11-30,20,653
2021-12-01,21,645
2021-12-02,28,629
2021-12-03,16,627
2021-12-04,27,590
2021-12-05,35,591
2021-12-06,19,678
2021-12-07,28,662
2021-12-08,28,666
2021-12-09,26,679
2021-12-10,13,644
2021-12-11,18,577
2021-12-12,19,560
2021-12-13,30,702
2021-12-14,25,660
2021-12-15,16,673
2021-12-16,21,656
2021-12-17,28,635
2021-12-18,23,597
2021-12-19,13,576
2021-12-20,22,664
2021-12-21,18,641
2021-12-22,29,701
2021-12-23,27,697
2021-12-24,34,677
2021-12-25,24,602
2021-12-26,26,612
2021-12-27,20,699
2021-12-28,22,692
2021-12-29,16,694
2021-12-30,14,650
2021-12-31,12,633
2022-01-01,13,561
2022-01-02,25,594
2022-01-03,24,612
2022-01-04,12,716
2022-01-05,19,679
2022-01-06,18,687
2022-01-07,12,675
2022-01-08,11,631
2022-01-09,14,33
2022-01-10,9,0
2022-01-11,21,728
2022-01-12,17,692
2022-01-13,14,714
2022-01-14,13,674
2022-01-15,22,620
2022-01-16,20,639
2022-01-17,19,726
2022-01-18,14,672
2022-01-19,25,728
2022-01-20,21,692
2022-01-21,26,712
2022-01-22,18,591
2022-01-23,27,608
2022-01-24,11,669
2022-01-25,19,663
2022-01-26,23,673
2022-01-27,22,669
2022-01-28,12,604
2022-01-29,16,551
2022-01-30,20,566
2022-01-31,16,541
2022-02-01,18,538
2022-02-02,13,557
2022-02-03,16,530
2022-02-04,16,551
2022-02-05,17,528
2022-02-06,18,553
2022-02-07,21,619
2022-02-08,6,650
2022-02-09,3,650
2022-02-10,17,658
2022-02-11,15,672
2022-02-12,12,590
2022-02-13,11,588
2022-02-14,13,652
2022-02-15,22,687
2022-02-16,21,691
2022-02-17,10,691
2022-02-18,10,657
2022-02-19,19,616
2022-02-20,31,587
2022-02-21,30,655
2022-02-22,27,688
2022-02-23,19,669
2022-02-24,24,677
2022-02-25,16,691
2022-02-26,22,611
2022-02-27,25,598
2022-02-28,16,686
2022-03-01,21,692
2022-03-02,17,711
2022-03-03,27,688
2022-03-04,31,679
2022-03-05,33,628
2022-03-06,21,617
2022-03-07,28,725
2022-03-08,34,686
2022-03-09,29,729
2022-03-10,52,727
2022-03-11,31,714
2022-03-12,41,654
2022-03-13,35,663
2022-03-14,36,743
2022-03-15,37,731
2022-03-16,37,754
2022-03-17,26,749
2022-03-18,28,757
2022-03-19,41,673
2022-03-20,30,668
2022-03-21,35,786
2022-03-22,30,772
2022-03-23,29,745
2022-03-24,41,777
2022-03-25,41,748
2022-03-26,31,703
2022-03-27,24,693
2022-03-28,35,791
2022-03-29,38,796
2022-03-30,29,791
2022-03-31,30,787
2022-04-01,22,785
2022-04-02,37,759
2022-04-03,41,691
2022-04-04,51,712
2022-04-05,42,726
2022-04-06,31,793
2022-04-07,29,814
2022-04-08,28,808
2022-04-09,40,735
2022-04-10,38,730
2022-04-11,40,796
2022-04-12,36,831
2022-04-13,34,798
2022-04-14,22,798
2022-04-15,28,821
2022-04-16,32,721
2022-04-17,22,727
2022-04-18,15,861
2022-04-19,23,806
2022-04-20,29,792
2022-04-21,29,827
2022-04-22,41,816
2022-04-23,26,730
2022-04-24,28,796
2022-04-25,18,794
2022-04-26,15,833
2022-04-27,51,811
2022-04-28,29,856
2022-04-29,28,818
2022-04-30,36,772
2022-05-01,37,676
2022-05-02,35,709
2022-05-03,15,752
2022-05-04,19,790
2022-05-05,16,823
2022-05-06,20,867
2022-05-07,31,800
2022-05-08,48,778
2022-05-09,54,846
2022-05-10,45,843
2022-05-11,39,892
2022-05-12,33,891
2022-05-13,35,855
2022-05-14,37,763
2022-05-15,45,771
2022-05-16,31,866
2022-05-17,30,886
2022-05-18,33,845
2022-05-19,35,856
2022-05-20,28,887
2022-05-21,44,793
2022-05-22,37,765
2022-05-23,49,874
2022-05-24,44,928
2022-05-25,38,894
2022-05-26,34,902
2022-05-27,36,913
2022-05-28,37,823
2022-05-29,30,792
2022-05-30,27,950
2022-05-31,34,927
2022-06-01,42,915
2022-06-02,43,892
2022-06-03,28,801
2022-06-04,37,738
2022-06-05,39,757
2022-06-06,36,954
2022-06-07,32,937
2022-06-08,33,929
2022-06-09,39,969
2022-06-10,42,957
2022-06-11,31,799
2022-06-12,31,821
2022-06-13,32,953
2022-06-14,24,971
2022-06-15,33,919
2022-06-16,34,935
2022-06-17,53,923
2022-06-18,55,871
2022-06-19,38,843
2022-06-20,32,1002
2022-06-21,44,969
2022-06-22,63,980
2022-06-23,35,952
2022-06-24,32,964
2022-06-25,37,830
2022-06-26,30,819
2022-06-27,20,990
2022-06-28,36,977
2022-06-29,46,1020
2022-06-30,46,990
2022-07-01,47,1015
2022-07-02,36,851
2022-07-03,33,839
2022-07-04,27,1030
2022-07-05,60,1032
2022-07-06,51,1024
2022-07-07,33,985
2022-07-08,47,1011
2022-07-09,47,882
2022-07-10,35,910
2022-07-11,49,1068
2022-07-12,61,1018
2022-07-13,48,1035
2022-07-14,40,1010
2022-07-15,42,1004
2022-07-16,46,906
2022-07-17,47,890
2022-07-18,40,1096
2022-07-19,48,1026
2022-07-20,55,1037
2022-07-21,44,1055
2022-07-22,33,1049
2022-07-23,31,936
2022-07-24,36,670
2022-07-25,56,1069
2022-07-26,46,1056
2022-07-27,37,1060
2022-07-28,35,1075
2022-07-29,39,1097
2022-07-30,47,906
2022-07-31,45,953
2022-08-01,41,1110
2022-08-02,36,1146
2022-08-03,59,1097
2022-08-04,50,1123
2022-08-05,56,1044
2022-08-06,42,938
2022-08-07,38,987
2022-08-08,42,1121
2022-08-09,34,1088
2022-08-10,45,1097
2022-08-11,50,1128
2022-08-12,36,1098
2022-08-13,38,1027
2022-08-14,55,983
2022-08-15,54,1118
2022-08-16,49,1129
2022-08-17,33,1144
2022-08-18,33,1173
2022-08-19,31,1125
2022-08-20,41,1031
2022-08-21,36,1000
2022-08-22,40,1149
2022-08-23,42,1147
2022-08-24,32,1190
2022-08-25,33,1146
2022-08-26,45,1165
2022-08-27,35,1065
2022-08-28,21,1048
2022-08-29,38,1208
2022-08-30,31,1219
2022-08-31,51,1263
2022-09-01,41,1212
2022-09-02,46,1204
2022-09-03,48,1104
2022-09-04,43,1062
2022-09-05,37,1250
2022-09-06,37,1270
2022-09-07,37,1218
2022-09-08,34,1233
2022-09-09,29,1236
2022-09-10,38,1022
2022-09-11,38,1059
2022-09-12,43,1148
2022-09-13,37,1260
2022-09-14,55,1309
2022-09-15,33,1259
2022-09-16,36,1234
2022-09-17,37,1131
2022-09-18,36,1121
2022-09-19,28,1282
2022-09-20,39,1289
2022-09-21,28,1256
2022-09-22,32,1265
2022-09-23,36,1242
2022-09-24,31,1166
2022-09-25,31,1124
2022-09-26,26,1298
2022-09-27,39,1280
2022-09-28,27,1289
2022-09-29,46,1294
2022-09-30,25,1258
2022-10-01,33,1035
2022-10-02,35,1059
2022-10-03,30,1095
2022-10-04,29,1114
2022-10-05,46,1148
2022-10-06,28,1186
2022-10-07,30,1169
2022-10-08,35,1221
2022-10-09,32,1245
2022-10-10,41,1303
2022-10-11,37,1331
2022-10-12,44,1311
2022-10-13,50,1336
2022-10-14,63,1311
2022-10-15,55,1197
2022-10-16,64,1207
2022-10-17,60,1365
2022-10-18,64,1383
2022-10-19,49,1390
2022-10-20,61,1382
2022-10-21,44,1406
2022-10-22,59,1245
2022-10-23,90,1237
2022-10-24,69,1424
2022-10-25,74,1437
2022-10-26,92,1475
2022-10-27,65,1421
2022-10-28,79,1425
2022-10-29,66,1309
2022-10-30,71,1265
2022-10-31,66,1448
2022-11-01,85,1472
2022-11-02,76,1455
2022-11-03,58,1536
2022-11-04,68,1493
2022-11-05,60,1390
2022-11-06,51,1371
2022-11-07,83,1584
2022-11-08,91,1507
2022-11-09,82,1528
2022-11-10,82,1534
2022-11-11,79,1458
2022-11-12,88,1409
2022-11-13,81,1381
2022-11-14,73,1604
2022-11-15,81,1614
2022-11-16,75,1599
2022-11-17,77,1417
2022-11-18,81,1528
2022-11-19,79,1358
2022-11-20,74,1373
2022-11-21,79,1589
2022-11-22,66,1665
2022-11-23,60,1654
2022-11-24,76,1671
2022-11-25,74,1647
2022-11-26,76,1506
2022-11-27,105,1444
2022-11-28,73,1707
2022-11-29,73,1705
2022-11-30,77,1688
2022-12-01,88,1664
2022-12-02,73,1679
2022-12-03,84,1531
2022-12-04,76,1557
2022-12-05,67,1638
2022-12-06,68,1685
2022-12-07,72,1696
2022-12-08,70,1731
2022-12-09,77,1668
2022-12-10,67,1530
2022-12-11,57,1472
2022-12-12,62,1716
2022-12-13,44,1600
2022-12-14,67,1549
2022-12-15,78,1672
2022-12-16,68,1560
2022-12-17,54,1388
2022-12-18,55,1453
2022-12-19,67,1669
2022-12-20,68,1503
2022-12-21,40,1423
2022-12-22,51,1509
2022-12-23,47,1582
2022-12-24,53,1372
2022-12-25,49,1491
2022-12-26,53,1596
2022-12-27,49,1654
2022-12-28,48,1689
2022-12-29,55,1685
2022-12-30,69,1729
2022-12-31,45,1368
2023-01-01,42,1454
2023-01-02,61,1594
2023-01-03,41,1851
2023-01-04,50,1843
2023-01-05,70,1868
2023-01-06,55,1883
2023-01-07,62,1745
2023-01-08,61,1705
2023-01-09,67,1931
2023-01-10,45,1930
2023-01-11,63,1913
2023-01-12,73,1942
2023-01-13,55,1886
2023-01-14,64,1768
2023-01-15,63,1659
2023-01-16,53,1854
2023-01-17,55,1803
2023-01-18,45,1798
2023-01-19,24,1676
2023-01-20,22,1535
2023-01-21,21,1338
2023-01-22,30,1355
2023-01-23,36,1469
2023-01-24,37,1474
2023-01-25,39,1514
2023-01-26,29,1566
2023-01-27,38,1664
2023-01-28,35,1758
2023-01-29,47,1816
2023-01-30,39,1954
2023-01-31,31,1884
2023-02-01,43,1926
2023-02-02,45,1947
2023-02-03,41,1974
2023-02-04,34,1747
2023-02-05,33,1727
2023-02-06,34,1977
2023-02-07,22,1984
2023-02-08,25,1997
2023-02-09,25,1980
2023-02-10,30,1970
2023-02-11,21,1779
2023-02-12,22,1764
2023-02-13,37,1963
2023-02-14,25,1922
2023-02-15,29,1943
2023-02-16,39,1917
2023-02-17,35,1982
2023-02-18,29,1732
2023-02-19,36,1680
2023-02-20,36,1992
2023-02-21,28,1967
2023-02-22,25,1952
2023-02-23,33,1907
2023-02-24,25,1937
2023-02-25,29,1734
2023-02-26,27,1742
2023-02-27,24,1891
2023-02-28,24,1987
2023-03-01,30,1915
2023-03-02,24,1933
2023-03-03,30,1855
2023-03-04,22,1703
2023-03-05,23,1646
2023-03-06,28,1953
2023-03-07,15,1897
2023-03-08,22,1943
2023-03-09,25,1914
2023-03-10,24,1870
2023-03-11,13,1723
2023-03-12,22,1692
2023-03-13,28,1944
2023-03-14,31,1944
2023-03-15,30,1912
2023-03-16,30,1887
2023-03-17,30,1855
2023-03-18,32,1631
2023-03-19,13,1570
2023-03-20,15,1925
2023-03-21,27,1914
2023-03-22,27,1920
2023-03-23,33,1930
2023-03-24,29,1868
2023-03-25,22,1673
2023-03-26,18,1659
2023-03-27,27,1932
2023-03-28,28,1926
2023-03-29,26,1803
2023-03-30,18,1945
2023-03-31,20,1824
2023-04-01,31,1645
2023-04-02,27,1570
2023-04-03,40,1901
2023-04-04,27,1944
2023-04-05,26,1683
2023-04-06,20,1853
2023-04-07,17,1859
2023-04-08,22,1733
2023-04-09,22,1664
2023-04-10,17,1899
2023-04-11,29,1852
2023-04-12,25,1893
2023-04-13,27,1910
2023-04-14,17,1863
2023-04-15,28,1709
2023-04-16,15,1631
2023-04-17,25,1900
2023-04-18,30,1841
2023-04-19,20,1841
2023-04-20,25,1882
2023-04-21,33,1798
2023-04-22,18,1646
2023-04-23,28,1749
2023-04-24,28,1860
2023-04-25,31,1837
2023-04-26,25,1895
2023-04-27,33,1809
2023-04-28,18,1781
2023-04-29,28,1475
2023-04-30,19,1399
2023-05-01,28,1464
2023-05-02,47,1547
2023-05-03,42,1705
2023-05-04,39,1884
2023-05-05,56,1911
2023-05-06,44,1798
2023-05-07,45,1626
2023-05-08,44,1893
2023-05-09,45,1888
2023-05-10,32,1874
2023-05-11,44,1868
2023-05-12,47,1901
2023-05-13,39,1687
2023-05-14,45,1646
2023-05-15,43,1900
2023-05-16,37,1945
2023-05-17,36,1922
2023-05-18,42,1859
2023-05-19,42,1878
2023-05-20,30,1627
2023-05-21,30,1670
2023-05-22,42,1981
2023-05-23,42,1923
2023-05-24,46,1990
2023-05-25,39,1960
2023-05-26,36,1920
2023-05-27,55,1735
2023-05-28,45,1686
2023-05-29,38,1957
2023-05-30,36,1990
2023-05-31,35,1993
2023-06-01,36,1927
2023-06-02,44,1970
2023-06-03,35,1690
2023-06-04,40,1695
2023-06-05,33,2014
2023-06-06,40,2011
2023-06-07,32,2023
2023-06-08,54,2032
2023-06-09,50,2036
2023-06-10,31,1726
2023-06-11,43,1684
2023-06-12,45,2030
2023-06-13,51,2079
2023-06-14,47,1993
2023-06-15,43,2090
2023-06-16,24,2043
2023-06-17,30,1828
2023-06-18,45,1738
2023-06-19,60,2039
2023-06-20,38,2091
2023-06-21,49,1950
2023-06-22,42,1666
2023-06-23,58,1765
2023-06-24,46,1753
2023-06-25,59,1997
2023-06-26,61,2126
2023-06-27,54,2116
2023-06-28,57,2096
2023-06-29,70,2099
2023-06-30,55,2072
2023-07-01,58,1834
2023-07-02,51,1779
2023-07-03,43,2125
2023-07-04,44,2140
2023-07-05,62,2085
2023-07-06,35,2102
2023-07-07,37,2119
2023-07-08,45,1835
2023-07-09,44,1790
2023-07-10,50,2148
2023-07-11,43,2098
2023-07-12,43,2149
2023-07-13,39,2091
2023-07-14,43,2102
2023-07-15,53,1796
2023-07-16,45,1821
2023-07-17,45,2124
2023-07-18,55,2118
2023-07-19,49,2167
2023-07-20,49,2118
2023-07-21,39,2023
2023-07-22,39,1778
2023-07-23,42,1820
2023-07-24,28,2124
2023-07-25,46,2180
2023-07-26,55,2150
2023-07-27,60,2213
2023-07-28,53,2096
2023-07-29,37,1887
2023-07-30,36,1858
2023-07-31,40,2207
2023-08-01,39,2185
2023-08-02,43,2193
2023-08-03,40,2139
2023-08-04,50,2138
2023-08-05,39,1905
2023-08-06,56,1847
2023-08-07,47,2181
2023-08-08,34,2170
2023-08-09,37,2207
2023-08-10,38,2138
2023-08-11,39,2167
2023-08-12,39,1873
2023-08-13,28,1792
2023-08-14,41,2207
2023-08-15,44,2154
2023-08-16,58,2193
2023-08-17,48,2154
2023-08-18,33,2125
2023-08-19,60,1908
2023-08-20,44,1848
2023-08-21,47,2199
2023-08-22,62,2215
2023-08-23,42,2169
2023-08-24,39,2232
2023-08-25,62,2185
2023-08-26,68,1975
2023-08-27,53,1968
2023-08-28,47,2224
2023-08-29,38,2258
2023-08-30,61,2298
2023-08-31,39,2293
2023-09-01,55,2253
2023-09-02,50,1994
2023-09-03,60,1958
2023-09-04,43,2337
2023-09-05,40,2291
2023-09-06,44,2295
2023-09-07,53,2313
2023-09-08,38,2258
2023-09-09,54,2060
2023-09-10,25,1969
2023-09-11,36,2450
2023-09-12,35,2363
2023-09-13,32,2336
2023-09-14,39,2273
2023-09-15,46,2354
2023-09-16,43,1982
2023-09-17,34,1914
2023-09-18,41,2336
2023-09-19,31,2347
2023-09-20,39,2336
2023-09-21,39,2337
2023-09-22,32,2324
2023-09-23,28,2031
2023-09-24,32,1994
2023-09-25,40,2362
2023-09-26,35,2322
2023-09-27,32,2314
2023-09-28,31,2230
2023-09-29,24,1769
2023-09-30,40,1781
2023-10-01,33,1729
2023-10-02,42,1848
2023-10-03,35,1797
2023-10-04,38,1926
2023-10-05,39,1990
2023-10-06,36,2038
2023-10-07,30,2308
2023-10-08,39,2262
2023-10-09,37,2294
2023-10-10,34,2328
2023-10-11,43,2314
2023-10-12,30,2375
2023-10-13,35,2317
2023-10-14,31,1988
2023-10-15,37,1953
2023-10-16,34,2417
2023-10-17,33,2373
2023-10-18,48,2410
2023-10-19,42,2391
2023-10-20,34,2367
2023-10-21,42,2027
2023-10-22,32,2072
2023-10-23,28,2436
2023-10-24,43,2402
2023-10-25,33,2322
2023-10-26,34,2375
2023-10-27,43,2314
2023-10-28,34,1987
2023-10-29,24,1930
2023-10-30,33,2292
2023-10-31,28,2327
2023-11-01,28,2321
2023-11-02,30,2334
2023-11-03,32,2285
2023-11-04,31,1987
2023-11-05,27,1940
2023-11-06,42,2295
2023-11-07,42,2245
2023-11-08,31,2246
2023-11-09,29,2280
2023-11-10,39,2256
2023-11-11,40,1998
2023-11-12,36,1915
2023-11-13,46,2366
2023-11-14,35,2259
2023-11-15,45,2304
2023-11-16,44,2276
2023-11-17,38,2102
2023-11-18,35,1967
2023-11-19,41,1931
2023-11-20,41,2288
2023-11-21,34,2249
2023-11-22,31,2291
2023-11-23,45,2209
2023-11-24,36,2248
2023-11-25,39,1970
2023-11-26,36,1885
2023-11-27,36,2287
2023-11-28,39,2307
2023-11-29,38,2246
2023-11-30,34,2258
2023-12-01,42,2240
2023-12-02,33,1916
2023-12-03,46,1940
2023-12-04,39,2328
2023-12-05,39,1644
2023-12-06,26,1627
2023-12-07,29,1546
2023-12-08,28,1758
2023-12-09,33,1537
2023-12-10,27,1451
2023-12-11,25,1736
2023-12-12,17,1654
2023-12-13,25,1662
2023-12-14,21,1674
2023-12-15,31,1570
2023-12-16,27,1372
2023-12-17,33,1430
2023-12-18,25,1608
2023-12-19,21,1573
2023-12-20,12,1560
2023-12-21,20,1574
2023-12-22,25,1496
2023-12-23,26,1335
2023-12-24,14,1371
2023-12-25,18,1509
2023-12-26,14,1553
2023-12-27,18,1529
2023-12-28,18,1508
2023-12-29,16,1529
2023-12-30,18,1287
2023-12-31,12,1207
2024-01-01,24,1226
2024-01-02,18,1505
2024-01-03,14,1538
2024-01-04,26,1524
2024-01-05,16,1469
2024-01-06,24,1354
2024-01-07,19,1303
2024-01-08,25,1567
2024-01-09,15,1573
2024-01-10,17,1570
2024-01-11,20,1583
2024-01-12,21,1498
2024-01-13,17,1390
2024-01-14,25,1314
2024-01-15,15,1581
2024-01-16,18,1531
2024-01-17,24,1568
2024-01-18,18,1551
2024-01-19,24,1531
2024-01-20,28,1323
2024-01-21,32,1344
2024-01-22,12,1551
2024-01-23,11,1929
2024-01-24,15,1893
2024-01-25,22,1936
2024-01-26,15,1894
2024-01-27,17,1676
2024-01-28,23,1634
2024-01-29,21,1939
2024-01-30,22,1845
2024-01-31,20,1860
2024-02-01,18,1840
2024-02-02,18,1869
2024-02-03,19,1586
2024-02-04,17,1675
2024-02-05,27,1718
2024-02-06,23,1625
2024-02-07,20,1518
2024-02-08,16,1441
2024-02-09,17,1266
2024-02-10,14,1141
2024-02-11,8,1170
2024-02-12,19,1270
2024-02-13,13,1256
2024-02-14,20,1318
2024-02-15,14,1375
2024-02-16,17,1430
2024-02-17,23,1511
2024-02-18,22,1709
2024-02-19,17,1882
2024-02-20,11,1860
2024-02-21,30,1865
2024-02-22,18,1885
2024-02-23,16,1859
2024-02-24,20,1581
2024-02-25,14,1563
2024-02-26,21,1910
2024-02-27,15,1919
2024-02-28,17,1872
2024-02-29,16,1875
2024-03-01,13,1878
2024-03-02,23,1671
2024-03-03,15,1627
2024-03-04,19,1955
2024-03-05,14,1918
2024-03-06,21,1937
2024-03-07,27,1891
2024-03-08,15,1832
2024-03-09,19,1711
2024-03-10,13,1685
2024-03-11,26,1977
2024-03-12,21,1973
2024-03-13,28,1912
2024-03-14,24,1961
2024-03-15,14,1882
2024-03-16,17,1678
2024-03-17,23,1595
2024-03-18,16,1912
2024-03-19,21,1944
2024-03-20,12,1931
2024-03-21,6,1949
2024-03-22,12,1824
2024-03-23,26,1671
2024-03-24,16,1575
2024-03-25,23,1960
2024-03-26,18,1907
2024-03-27,19,1899
2024-03-28,24,1914
2024-03-29,25,1847
2024-03-30,18,1634
2024-03-31,20,1610
2024-04-01,7,1901
2024-04-02,16,1945
2024-04-03,14,1838
2024-04-04,22,1549
2024-04-05,28,1629
2024-04-06,30,1606
2024-04-07,23,1876
2024-04-08,27,1962
2024-04-09,28,1882
2024-04-10,35,1910
2024-04-11,25,1903
2024-04-12,30,1884
2024-04-13,23,1686
2024-04-14,30,1612
2024-04-15,26,2039
2024-04-16,23,1902
2024-04-17,23,1937
2024-04-18,21,1908
2024-04-19,17,1958
2024-04-20,23,1633
2024-04-21,27,1704
2024-04-22,21,1971
2024-04-23,33,1931
2024-04-24,15,1966
2024-04-25,18,1899
2024-04-26,26,1917
2024-04-27,29,1676
2024-04-28,30,1802
2024-04-29,16,1883
2024-04-30,10,1777
2024-05-01,25,1502
2024-05-02,19,1444
2024-05-03,17,1543
2024-05-04,20,1519
2024-05-05,13,1626
2024-05-06,11,1902
2024-05-07,12,1921
2024-05-08,12,1872
2024-05-09,18,1845
2024-05-10,33,1892
2024-05-11,27,1867
2024-05-12,22,1618
2024-05-13,26,1929
2024-05-14,21,1946
2024-05-15,15,1867
2024-05-16,16,1906
2024-05-17,25,1880
2024-05-18,30,1628
2024-05-19,41,1606
2024-05-20,32,1995
2024-05-21,22,1890
2024-05-22,20,1948
2024-05-23,19,1910
2024-05-24,16,1842
2024-05-25,21,1699
2024-05-26,29,1590
2024-05-27,24,2009
2024-05-28,17,1963
2024-05-29,10,1949
2024-05-30,10,1929
2024-05-31,16,1859
2024-06-01,28,1665
2024-06-02,16,1566
2024-06-03,21,1930
2024-06-04,23,1880
